Mankato, MN

7:58 AM CST on December 08, 2019 (GMT -0600)
Mankato Regional

Weather History for KMKT - October, 2019

Change the Weather History Date:

Friday, October 11, 2019

  Actual Average Record
Temperature  
Mean Temperature 35 °F -  
Max Temperature 39 °F 59 °F 87 °F (2015)
Min Temperature 33 °F 39 °F 28 °F (2018)
Degree Days  
Heating Degree Days 30    
Moisture  
Dew Point 30 °F    
Average Humidity 80    
Maximum Humidity 100    
Minimum Humidity 60    
Precipitation  
Precipitation 0.01 in - - ()
Sea Level Pressure  
Sea Level Pressure 29.85 in    
Wind  
Wind Speed 17 mph ()    
Max Wind Speed 26 mph    
Max Gust Speed 38 mph    
Visibility 9.1 miles    
Events Rain , Snow    
Averages and records for this station are not official NWS values.
T = Trace of Precipitation, MM = Missing Value Source: Averaged Metar Reports

Daily Weather History Graph

Daily Weather History Graph

Search for Another Location

Airport or City:

Astronomy

Oct. 11, 2019 Rise Set
Actual Time 7:25 AM CDT 6:38 PM CDT
Civil Twilight 6:56 AM CDT 7:07 PM CDT
Nautical Twilight 6:22 AM CDT 7:41 PM CDT
Astronomical Twilight 5:49 AM CDT 8:14 PM CDT
Moon 6:15 PM CDT (10/11) 4:58 AM CDT (10/11)
Length of Visible Light 12h 11m
Length of Day
11h 13m
Waxing Gibbous, 96% of the Moon is Illuminated
Oct 11
Waxing Gibbous
Oct 13
Full
Oct 21
Last Quarter
Oct 27
New
Nov 4
First Quarter

Hourly Weather History & Observations

Time (CDT) Temp. Windchill Dew Point Humidity Pressure Visibility Wind Dir Wind Speed Gust Speed Precip Events Conditions
12:21 AM 37.4 °F 28.2 °F 37.4 °F 100% 29.79 in 10.0 mi West 16.1 mph - 0.00 in Rain Light Rain
12:52 AM 37.4 °F 28.9 °F 35.6 °F 93% 29.79 in 10.0 mi West 13.8 mph 24.2 mph 0.00 in   Overcast
12:56 AM 37.0 °F 28.1 °F 36.0 °F 96% 29.81 in 10.0 mi West 15.0 mph 23.0 mph 0.00 in   Overcast
1:56 AM 37.0 °F 27.4 °F 36.0 °F 96% 29.81 in 10.0 mi West 17.3 mph 20.7 mph N/A   Overcast
2:04 AM 37.4 °F 30.3 °F 35.6 °F 93% 29.79 in 10.0 mi West 10.4 mph 21.9 mph N/A   Overcast
2:56 AM 36.0 °F 25.3 °F 34.0 °F 93% 29.83 in 10.0 mi West 19.6 mph 25.3 mph N/A   Overcast
3:56 AM 36.0 °F 26.0 °F 33.1 °F 89% 29.84 in 10.0 mi WSW 17.3 mph 21.9 mph N/A   Overcast
4:56 AM 35.1 °F 25.2 °F 34.0 °F 96% 29.82 in 8.0 mi West 16.1 mph - 0.00 in Rain Light Rain
5:56 AM 35.1 °F 25.9 °F 33.1 °F 92% 29.85 in 10.0 mi WSW 13.8 mph - 0.00 in   Overcast
6:56 AM 35.1 °F 24.8 °F 30.9 °F 85% 29.86 in 10.0 mi West 17.3 mph 23.0 mph N/A   Overcast
7:40 AM 33.8 °F 24.3 °F 32.0 °F 93% 29.84 in 2.0 mi West 13.8 mph 21.9 mph 0.00 in Snow Light Snow
7:47 AM 33.8 °F 23.2 °F 32.0 °F 93% 29.84 in 1.8 mi West 17.3 mph 23.0 mph 0.01 in Snow Light Snow
7:51 AM 33.8 °F 22.2 °F 32.0 °F 93% 29.84 in 4.0 mi WSW 20.7 mph 24.2 mph 0.01 in Snow Light Snow
7:56 AM 33.1 °F 21.9 °F 30.9 °F 92% 29.87 in 9.0 mi WSW 18.4 mph 24.2 mph 0.01 in   Scattered Clouds
8:56 AM 35.1 °F 24.5 °F 30.0 °F 82% 29.88 in 10.0 mi WSW 18.4 mph 21.9 mph 0.00 in   Overcast
9:31 AM 35.6 °F 23.7 °F 26.6 °F 70% 29.84 in 10.0 mi WSW 24.2 mph 31.1 mph N/A   Overcast
9:42 AM 35.6 °F 25.9 °F 28.4 °F 75% 29.85 in 10.0 mi WSW 16.1 mph 33.4 mph N/A   Overcast
9:56 AM 35.1 °F 23.0 °F 28.9 °F 78% 29.88 in 10.0 mi WSW 24.2 mph 31.1 mph N/A   Overcast
10:34 AM 35.6 °F 26.2 °F 28.4 °F 75% 29.85 in 10.0 mi WSW 15.0 mph - N/A   Overcast
10:56 AM 36.0 °F 24.7 °F 27.0 °F 70% 29.89 in 10.0 mi WSW 21.9 mph 27.6 mph N/A   Overcast
11:56 AM 37.0 °F 25.1 °F 26.1 °F 65% 29.88 in 10.0 mi WSW 26.5 mph 32.2 mph N/A   Overcast
12:56 PM 37.0 °F 25.6 °F 25.0 °F 62% 29.87 in 10.0 mi WSW 24.2 mph 32.2 mph N/A   Overcast
1:56 PM 37.0 °F 26.2 °F 26.1 °F 65% 29.86 in 10.0 mi WSW 21.9 mph 29.9 mph N/A   Overcast
2:56 PM 37.9 °F 27.1 °F 25.0 °F 60% 29.86 in 10.0 mi WSW 23.0 mph 34.5 mph N/A   Overcast
3:56 PM 37.9 °F 26.8 °F 26.1 °F 62% 29.86 in 10.0 mi West 24.2 mph 38.0 mph N/A   Overcast
4:56 PM 37.0 °F 25.9 °F 27.0 °F 67% 29.86 in 10.0 mi West 23.0 mph 33.4 mph 0.00 in   Overcast
5:04 PM 37.4 °F 26.9 °F 26.6 °F 65% 29.83 in 10.0 mi WSW 20.7 mph 29.9 mph N/A   Overcast
5:32 PM 35.6 °F 23.4 °F 26.6 °F 70% 29.83 in 10.0 mi WSW 25.3 mph 32.2 mph 0.00 in Rain Light Rain
5:56 PM 36.0 °F 24.4 °F 26.1 °F 67% 29.88 in 10.0 mi WSW 23.0 mph 33.4 mph 0.00 in Rain Light Rain
6:56 PM 34.0 °F 23.4 °F 28.0 °F 79% 29.89 in 9.0 mi WSW 17.3 mph 31.1 mph 0.00 in Snow Light Snow
7:56 PM 33.1 °F 21.2 °F 30.0 °F 89% 29.90 in 9.0 mi West 20.7 mph 27.6 mph 0.00 in Snow Light Snow
8:56 PM 33.1 °F 20.6 °F 28.9 °F 85% 29.89 in 7.0 mi WSW 23.0 mph 31.1 mph 0.00 in Snow Light Snow
9:39 PM 33.8 °F 22.5 °F 28.4 °F 81% 29.85 in 9.0 mi WSW 19.6 mph 31.1 mph 0.00 in Snow Light Snow
9:56 PM 34.0 °F 22.7 °F 28.0 °F 79% 29.88 in 10.0 mi WSW 19.6 mph 26.5 mph 0.00 in Snow Light Snow
10:56 PM 35.1 °F 23.0 °F 26.1 °F 70% 29.86 in 10.0 mi WSW 24.2 mph 32.2 mph 0.00 in Rain Light Rain
11:56 PM 35.1 °F 24.1 °F 25.0 °F 67% 29.84 in 10.0 mi WSW 19.6 mph 33.4 mph 0.00 in   Overcast